Theta_e
352 352 351 350 350 348 347 347 349 349 351 354 353 351 350 351 350 349 349 350 348 346 344 343 351 354 351 351 352 353 353 351 350
348 350 351 352 349 349 349 347 350 350 351 353 353 352 351 351 351 349 346 346 347 347 345 345 348 347 350 350 351 350 352 352 349
344 345 349 351 351 349 348 348 350 351 351 353 353 352 351 350 349 349 348 348 349 346 348 347 348 348 350 351 350 353 353 349 351
344 345 347 347 350 349 349 348 349 350 351 353 353 352 351 350 350 349 350 350 349 350 350 350 350 353 353 352 352 353 353 352 351
344 343 345 347 347 348 351 350 350 350 350 351 352 353 352 352 351 350 349 349 349 350 350 350 351 351 350 351 352 352 352 352 348
345 345 345 348 349 349 350 350 351 352 351 351 351 352 353 352 351 351 349 349 350 350 351 351 350 350 350 352 352 352 353 351 351
345 344 349 349 351 351 350 350 351 353 352 350 348 351 351 352 352 351 351 349 350 350 351 351 351 350 349 351 352 352 352 351 351
345 346 346 348 350 350 351 352 351 351 351 351 349 352 353 353 353 352 352 351 351 351 351 352 351 351 350 350 350 349 351 351 351
345 345 343 347 347 347 349 350 350 350 351 351 350 351 353 354 353 352 352 354 352 353 352 352 351 351 352 351 351 348 347 349 352
345 345 346 345 345 346 347 345 348 348 350 350 350 349 353 354 354 355 355 356 355 353 353 352 352 352 352 352 352 351 350 348 347
344 344 346 344 343 343 344 342 343 340 342 345 346 347 348 350 352 353 353 353 353 354 352 350 352 352 352 352 351 351 352 351 351
345 346 347 344 343 343 341 340 342 342 343 338 339 336 341 347 346 348 348 349 350 353 353 352 353 354 353 352 353 351 350 352 351
347 349 347 347 345 344 344 344 343 340 340 341 341 336 334 340 342 346 347 348 348 348 349 347 346 346 348 346 350 349 349 349 350
347 346 346 345 344 344 344 344 343 344 344 345 345 345 341 340 342 342 342 342 345 345 343 339 341 342 341 339 339 339 340 341 342
347 346 345 345 343 342 341 342 342 343 343 344 344 345 344 345 344 343 342 345 343 340 340 341 339 338 334 333 332 333 335 338 339
343 338 335 335 335 335 336 337 340 341 342 341 343 342 339 338 338 338 339 339 338 337 336 335 333 332 331 329 328 328 331 335 337
338 337 335 334 334 334 335 336 337 340 340 339 340 336 336 332 332 332 335 336 337 337 336 335 334 334 332 328 327 328 328 328 331
337 337 336 335 335 333 334 335 337 337 337 338 334 333 336 336 334 330 328 325 328 331 329 331 334 334 333 332 332 326 326 327 329
337 337 337 336 335 334 333 335 336 336 336 336 332 331 332 334 335 334 331 327 324 326 327 327 328 329 330 327 328 327 325 328 328
336 336 336 335 333 333 333 335 336 336 335 334 333 335 335 333 334 333 333 332 331 328 324 325 326 326 326 325 327 327 325 326 326
Wind_Speed
6 6 9 14 18 23 24 22 23 24 25 24 23 23 24 23 22 19 17 14 14 15 14 12 14 10 7 9 9 9 7 7 8
6 4 4 10 14 19 18 25 25 24 25 23 23 23 23 23 23 22 21 19 18 16 17 8 11 7 9 9 9 9 9 10 10
6 4 3 4 10 20 23 26 22 24 25 25 24 23 22 22 22 21 22 20 17 19 13 14 5 11 10 11 10 7 8 14 14
6 4 5 2 4 13 19 25 24 24 23 26 25 25 24 21 22 22 23 21 19 18 15 13 7 9 8 9 13 12 13 12 16
4 2 2 0 4 8 11 19 22 25 25 27 26 26 24 24 22 22 23 24 24 21 21 17 16 13 14 13 14 13 11 12 12
5 3 2 2 2 6 11 17 20 27 24 26 27 25 23 24 24 22 22 23 22 23 22 20 19 19 18 16 13 13 14 15 15
7 4 2 3 3 4 9 14 16 20 24 24 20 17 23 25 24 24 23 20 21 22 22 21 21 20 19 17 16 15 16 17 16
8 6 2 5 4 4 5 9 19 14 21 22 25 19 15 19 21 21 21 21 20 21 20 22 21 21 21 19 18 19 18 17 16
9 7 4 4 3 5 8 5 7 13 15 17 20 22 22 16 14 16 15 15 19 19 20 22 22 23 23 22 20 21 20 17 16
9 7 7 5 7 8 7 11 9 4 4 7 12 19 19 19 18 15 15 13 14 18 20 21 22 24 24 23 23 22 17 18 20
8 7 9 8 11 11 9 9 9 10 9 9 9 2 6 6 6 8 10 10 10 13 17 20 20 22 23 22 21 20 19 19 18
7 9 10 7 14 12 10 9 10 10 11 11 8 11 15 5 3 6 6 6 8 7 10 13 16 16 17 18 16 17 17 19 18
10 8 10 10 11 8 7 8 8 8 6 7 7 5 7 6 6 4 5 5 7 5 4 3 1 3 2 1 4 7 11 15 12
16 12 12 11 11 10 7 7 9 8 7 7 6 6 4 2 6 12 5 4 3 4 2 3 4 7 8 5 5 6 5 5 6
15 15 13 13 12 10 8 6 7 8 6 3 3 4 5 4 7 6 6 6 5 6 7 6 6 6 3 4 5 6 7 6 7
12 14 11 10 10 8 6 6 4 5 6 2 3 5 5 4 7 6 4 3 3 3 4 4 5 3 1 1 3 3 4 4 4
11 12 10 9 7 6 7 6 4 4 3 3 7 8 9 7 8 9 7 7 6 7 5 4 6 4 3 3 2 2 1 2 5
11 10 8 6 5 4 6 6 7 4 3 5 7 8 7 7 7 7 7 7 6 5 4 5 6 5 4 2 5 1 4 6 9
10 9 7 5 3 5 6 8 7 6 6 7 8 9 7 5 6 7 6 7 7 8 8 7 6 6 6 6 6 7 8 10 11
8 9 7 6 3 7 5 11 9 8 7 8 9 7 5 4 4 5 6 6 6 6 5 5 4 5 5 6 6 5 6 5 5
Wind_Direction
154 205 214 210 196 203 198 215 197 196 185 197 198 201 208 208 206 209 216 199 234 226 234 209 156 172 208 217 241 221 243 257 244
167 186 242 220 203 192 189 211 197 199 185 196 199 201 204 209 208 215 212 215 219 236 245 241 177 195 200 228 224 241 255 249 246
143 145 171 234 194 200 204 207 200 199 196 195 201 203 203 204 208 209 216 209 206 228 247 248 250 211 212 222 236 229 237 258 242
143 146 139 160 210 215 201 200 194 201 205 189 203 203 201 204 207 208 208 211 214 227 239 232 216 248 250 252 236 221 231 250 269
132 87 81 236 194 212 234 211 205 206 208 199 203 206 200 201 206 211 207 215 218 219 220 227 238 230 232 235 244 240 243 237 254
163 148 135 304 308 269 224 229 222 192 212 204 209 202 196 207 197 210 221 208 216 214 217 221 231 222 225 231 235 226 226 227 236
160 159 113 45 3 307 263 261 250 195 200 210 220 198 197 208 204 199 217 221 213 216 217 220 224 224 227 225 229 230 232 234 235
165 165 127 68 32 354 309 239 230 216 206 206 209 194 207 223 203 208 208 221 219 220 223 219 223 221 220 228 232 235 232 238 245
181 166 144 100 66 28 20 356 231 220 202 203 205 202 205 208 219 224 220 229 230 226 226 226 222 224 222 217 231 236 238 235 239
190 186 139 129 88 75 73 51 59 88 186 198 201 202 200 185 194 200 212 218 228 236 234 236 229 226 226 224 222 241 243 236 237
184 196 143 144 121 114 100 97 85 91 86 67 61 28 234 182 157 185 204 221 234 242 244 236 239 238 234 233 234 242 244 238 236
172 175 140 144 130 133 129 117 108 92 109 101 75 51 359 336 186 212 202 214 228 252 252 253 249 249 250 246 246 244 240 239 244
129 117 127 142 156 143 154 162 153 142 132 135 193 153 147 288 304 253 221 227 219 215 229 238 315 8 191 176 245 245 251 249 248
124 135 139 148 150 145 163 185 180 183 196 210 222 208 212 211 305 266 252 211 211 186 271 263 268 279 271 288 264 285 297 276 260
134 156 150 160 157 155 165 177 193 197 208 183 230 255 243 218 218 213 232 243 236 256 277 254 228 232 258 279 282 291 293 268 264
141 148 148 146 138 144 150 144 188 208 122 151 163 105 100 129 132 127 150 173 162 164 164 178 141 130 154 333 347 340 344 287 268
146 141 150 136 142 135 139 142 145 155 168 176 142 142 130 129 124 121 108 105 109 103 111 129 117 134 137 127 62 7 37 69 89
148 147 136 135 130 132 142 151 133 145 151 146 138 138 133 133 132 122 117 99 96 82 99 104 96 101 114 122 131 133 119 123 119
150 153 152 151 143 128 146 146 156 144 145 146 146 145 141 169 152 142 126 117 100 108 110 114 118 122 117 112 119 114 107 112 122
150 162 168 182 181 145 164 159 150 139 142 150 157 166 158 152 160 159 155 142 144 136 96 88 107 116 129 136 115 117 118 120 124